LGL3769 ELLX-LPPR

Flight info

Callsign LGL3769
Flight time 2h 8m
Altitude 35000
Route RAPOR DCT GIMER DCT BSN DCT ESTOC UT300 PON UN872 ERIGA UZ218 FUJTI DCT ATLEN DCT INSID T326 ASPOR
Aircraft B738/M-SDE2E3FGHIRWXY/LB1

Departure

Time 2026-05-04 04:30
Airport Luxembourg-Findel International Airport (ELLX)

Arrival

Time 2026-05-04 06:38
Airport Francisco de Sá Carneiro Airport (LPPR)
Time Latitude Longitude Altitude Speed Heading
2026-05-04 04:16 49.63348 6.21686 1229 ft 0 kts 330°
2026-05-04 04:24 49.63332 6.21701 1229 ft 3 kts 330°
2026-05-04 04:25 49.63314 6.21716 1229 ft 3 kts 330°
2026-05-04 04:25 49.63300 6.21730 1229 ft 1 kts 358°
2026-05-04 04:25 49.63294 6.21730 1229 ft 0 kts 49°
2026-05-04 04:28 49.63280 6.21812 1229 ft 17 kts 134°
2026-05-04 04:28 49.63180 6.21936 1227 ft 19 kts 126°
2026-05-04 04:28 49.63093 6.22087 1217 ft 22 kts 151°
2026-05-04 04:29 49.62967 6.22027 1213 ft 22 kts 240°
2026-05-04 04:29 49.62804 6.21589 1220 ft 84 kts 239°
2026-05-04 04:29 49.62389 6.20479 1230 ft 153 kts 238°
2026-05-04 04:29 49.61777 6.18907 1669 ft 177 kts 236°
2026-05-04 04:30 49.61065 6.17234 2431 ft 193 kts 236°
2026-05-04 04:30 49.60379 6.15429 3085 ft 205 kts 242°
2026-05-04 04:30 49.59668 6.13375 3334 ft 226 kts 242°
2026-05-04 04:30 49.58899 6.11210 3871 ft 234 kts 241°
2026-05-04 04:31 49.58071 6.08934 4251 ft 252 kts 240°
2026-05-04 04:31 49.57196 6.06557 5013 ft 256 kts 240°
2026-05-04 04:31 49.56590 6.03995 5896 ft 258 kts 264°
2026-05-04 04:31 49.56798 6.01276 6718 ft 263 kts 285°
2026-05-04 04:32 49.57548 5.98664 7484 ft 270 kts 294°
2026-05-04 04:32 49.58440 5.96096 8238 ft 274 kts 295°
2026-05-04 04:32 49.59348 5.93485 9027 ft 278 kts 294°
2026-05-04 04:32 49.60245 5.90836 9858 ft 279 kts 291°
2026-05-04 04:33 49.60690 5.87945 10437 ft 283 kts 269°
2026-05-04 04:33 49.60702 5.84786 10611 ft 306 kts 268°
2026-05-04 04:33 49.60700 5.81370 10781 ft 330 kts 268°
2026-05-04 04:33 49.60711 5.77758 11208 ft 342 kts 268°
2026-05-04 04:34 49.60733 5.74115 11865 ft 346 kts 268°
2026-05-04 04:34 49.60758 5.70381 12596 ft 349 kts 268°
2026-05-04 04:34 49.60784 5.66618 13306 ft 353 kts 268°
2026-05-04 04:34 49.60807 5.62801 13915 ft 359 kts 268°
2026-05-04 04:35 49.60829 5.58935 14550 ft 362 kts 267°
2026-05-04 04:35 49.60753 5.55064 15244 ft 362 kts 263°
2026-05-04 04:35 49.60561 5.51191 15912 ft 363 kts 263°
2026-05-04 04:35 49.60359 5.47288 16559 ft 366 kts 263°
2026-05-04 04:36 49.60170 5.43356 17185 ft 369 kts 263°
2026-05-04 04:36 49.59984 5.39397 17814 ft 372 kts 263°
2026-05-04 04:36 49.59790 5.35391 18313 ft 378 kts 263°
2026-05-04 04:36 49.59592 5.31315 18780 ft 382 kts 263°
2026-05-04 04:37 49.58852 5.19034 20458 ft 384 kts 255°
2026-05-04 04:37 49.58196 5.15036 20976 ft 385 kts 251°
2026-05-04 04:38 49.57455 5.11062 21506 ft 387 kts 251°
2026-05-04 04:38 49.56695 5.07071 22016 ft 389 kts 250°
2026-05-04 04:38 49.55938 5.03055 22527 ft 391 kts 251°
2026-05-04 04:38 49.55189 4.99009 23024 ft 394 kts 251°
2026-05-04 04:39 49.54456 4.94993 23499 ft 396 kts 251°
2026-05-04 04:39 49.53716 4.90897 23918 ft 398 kts 251°
2026-05-04 04:39 49.52976 4.86777 24330 ft 400 kts 251°
2026-05-04 04:39 49.52236 4.82648 24748 ft 401 kts 251°
2026-05-04 04:40 49.51493 4.78501 25150 ft 402 kts 251°
2026-05-04 04:40 49.50746 4.74350 25531 ft 404 kts 251°
2026-05-04 04:40 49.49995 4.70182 25915 ft 405 kts 251°
2026-05-04 04:40 49.49240 4.65997 26295 ft 406 kts 251°
2026-05-04 04:41 49.48481 4.61809 26663 ft 408 kts 251°
2026-05-04 04:41 49.47718 4.57604 27024 ft 409 kts 251°
2026-05-04 04:41 49.46951 4.53389 27379 ft 410 kts 251°
2026-05-04 04:41 49.46178 4.49149 27720 ft 412 kts 251°
2026-05-04 04:42 49.45403 4.44910 28076 ft 413 kts 251°
2026-05-04 04:42 49.44623 4.40651 28424 ft 414 kts 250°
2026-05-04 04:42 49.43847 4.36425 28761 ft 414 kts 250°
2026-05-04 04:42 49.43061 4.32153 29142 ft 414 kts 250°
2026-05-04 04:43 49.42280 4.27916 29649 ft 411 kts 250°
2026-05-04 04:43 49.41503 4.23709 30183 ft 407 kts 250°
2026-05-04 04:43 49.40731 4.19536 30594 ft 405 kts 250°
2026-05-04 04:43 49.39960 4.15387 30924 ft 404 kts 250°
2026-05-04 04:44 49.39188 4.11240 31233 ft 404 kts 250°
2026-05-04 04:44 49.38415 4.07099 31592 ft 402 kts 250°
2026-05-04 04:44 49.37646 4.02980 31977 ft 400 kts 250°
2026-05-04 04:44 49.36878 3.98879 32288 ft 400 kts 250°
2026-05-04 04:45 49.36105 3.94778 32552 ft 400 kts 250°
2026-05-04 04:45 49.35336 3.90731 32818 ft 400 kts 250°
2026-05-04 04:45 49.34553 3.86631 32986 ft 402 kts 250°
2026-05-04 04:47 49.29844 3.62094 32976 ft 396 kts 250°
2026-05-04 04:47 49.28277 3.53997 33010 ft 396 kts 250°
2026-05-04 04:48 49.26708 3.45917 32988 ft 396 kts 250°
2026-05-04 04:49 49.22759 3.25734 32967 ft 396 kts 249°
2026-05-04 04:49 49.21176 3.17701 32975 ft 397 kts 249°
2026-05-04 04:50 49.19577 3.09619 32989 ft 397 kts 249°
2026-05-04 04:50 49.18335 3.01344 32978 ft 404 kts 257°
2026-05-04 04:51 49.17648 2.92801 32970 ft 405 kts 258°
2026-05-04 04:51 49.16953 2.84256 32969 ft 405 kts 257°
2026-05-04 04:52 49.16222 2.75708 32966 ft 406 kts 257°
2026-05-04 04:52 49.15475 2.67168 32969 ft 406 kts 257°
2026-05-04 04:53 49.14720 2.58627 32978 ft 406 kts 257°
2026-05-04 04:53 49.13959 2.50076 32975 ft 407 kts 257°
2026-05-04 04:54 49.13191 2.41516 32970 ft 407 kts 257°
2026-05-04 04:54 49.12406 2.33007 32942 ft 407 kts 257°
2026-05-04 04:55 49.11594 2.24449 32967 ft 407 kts 256°
2026-05-04 04:55 49.10779 2.15885 32977 ft 408 kts 256°
2026-05-04 04:56 49.09955 2.07298 32973 ft 409 kts 256°
2026-05-04 04:56 49.08339 1.99122 32972 ft 400 kts 241°
2026-05-04 04:57 49.06005 1.91499 32945 ft 400 kts 241°
2026-05-04 04:57 49.03670 1.83837 32956 ft 401 kts 241°
2026-05-04 04:58 49.01327 1.76110 32967 ft 402 kts 241°
2026-05-04 04:58 48.98980 1.68360 32966 ft 404 kts 241°
2026-05-04 04:59 48.96620 1.60590 32963 ft 404 kts 241°
2026-05-04 04:59 48.94254 1.52821 32967 ft 404 kts 241°
2026-05-04 05:00 48.91896 1.45104 32965 ft 405 kts 241°
2026-05-04 05:01 48.88326 1.33468 32968 ft 405 kts 241°
2026-05-04 05:01 48.85923 1.25670 32972 ft 412 kts 240°
2026-05-04 05:02 48.83473 1.17745 33304 ft 415 kts 240°
2026-05-04 05:02 48.82247 1.13783 33689 ft 412 kts 240°
2026-05-04 05:02 48.81031 1.09855 34063 ft 409 kts 240°
2026-05-04 05:02 48.79818 1.05950 34309 ft 409 kts 241°
2026-05-04 05:03 48.78599 1.02034 34448 ft 411 kts 241°
2026-05-04 05:03 48.77376 0.98109 34601 ft 412 kts 241°
2026-05-04 05:04 48.73606 0.86438 34975 ft 413 kts 237°
2026-05-04 05:04 48.70598 0.78990 34970 ft 414 kts 235°
2026-05-04 05:06 48.58513 0.49519 34964 ft 411 kts 235°
2026-05-04 05:07 48.55506 0.42171 34998 ft 412 kts 236°
2026-05-04 05:07 48.52488 0.34817 34985 ft 412 kts 236°
2026-05-04 05:09 48.40696 0.06273 34967 ft 430 kts 236°
2026-05-04 05:09 48.39107 0.02445 34964 ft 431 kts 236°
2026-05-04 05:10 48.35887 -0.05205 34960 ft 433 kts 233°
2026-05-04 05:10 48.32305 -0.12459 34958 ft 432 kts 230°
2026-05-04 05:11 48.28699 -0.19585 34953 ft 431 kts 231°
2026-05-04 05:11 48.25107 -0.26769 34952 ft 429 kts 231°
2026-05-04 05:12 48.21488 -0.33883 34941 ft 428 kts 231°
2026-05-04 05:12 48.17859 -0.40963 34950 ft 428 kts 230°
2026-05-04 05:13 48.14232 -0.48033 34947 ft 427 kts 230°
2026-05-04 05:13 48.10632 -0.55041 34943 ft 427 kts 230°
2026-05-04 05:14 48.07005 -0.62087 34940 ft 427 kts 230°
2026-05-04 05:14 48.03374 -0.69122 34939 ft 427 kts 230°
2026-05-04 05:15 47.99740 -0.76145 34936 ft 427 kts 230°
2026-05-04 05:15 47.96098 -0.83166 34941 ft 427 kts 230°
2026-05-04 05:16 47.92446 -0.90188 34951 ft 428 kts 230°
2026-05-04 05:16 47.88786 -0.97206 34960 ft 429 kts 230°
2026-05-04 05:17 47.85118 -1.04224 34953 ft 430 kts 230°
2026-05-04 05:17 47.81443 -1.11235 34953 ft 430 kts 230°
2026-05-04 05:18 47.77783 -1.18199 34951 ft 430 kts 230°
2026-05-04 05:18 47.74100 -1.25190 34956 ft 430 kts 230°
2026-05-04 05:19 47.70403 -1.32192 34963 ft 431 kts 230°
2026-05-04 05:19 47.66694 -1.39197 34964 ft 432 kts 230°
2026-05-04 05:20 47.62969 -1.46217 34962 ft 433 kts 230°
2026-05-04 05:20 47.59208 -1.53191 34956 ft 433 kts 227°
2026-05-04 05:21 47.55221 -1.59795 34960 ft 432 kts 226°
2026-05-04 05:21 47.51164 -1.66362 34960 ft 432 kts 226°
2026-05-04 05:22 47.47117 -1.72962 34971 ft 434 kts 226°
2026-05-04 05:22 47.43065 -1.79590 34966 ft 435 kts 226°
2026-05-04 05:23 47.39004 -1.86220 34964 ft 436 kts 226°
2026-05-04 05:23 47.34813 -1.92674 34962 ft 435 kts 219°
2026-05-04 05:24 47.29798 -1.97599 34972 ft 433 kts 210°
2026-05-04 05:24 47.24646 -2.02112 34965 ft 433 kts 211°
2026-05-04 05:25 47.19476 -2.06682 34990 ft 433 kts 211°
2026-05-04 05:25 47.14310 -2.11275 34967 ft 434 kts 211°
2026-05-04 05:26 47.09137 -2.15872 34962 ft 435 kts 211°
2026-05-04 05:26 47.03961 -2.20460 34962 ft 435 kts 211°
2026-05-04 05:28 46.83280 -2.38686 34962 ft 434 kts 211°
2026-05-04 05:29 46.78107 -2.43225 34961 ft 434 kts 211°
2026-05-04 05:29 46.72923 -2.47765 34971 ft 435 kts 211°
2026-05-04 05:31 46.52111 -2.65894 34961 ft 436 kts 211°
2026-05-04 05:32 46.46907 -2.70402 34965 ft 435 kts 211°
2026-05-04 05:33 46.39134 -2.77116 34966 ft 435 kts 211°
2026-05-04 05:33 46.33937 -2.81595 34982 ft 435 kts 211°
2026-05-04 05:34 46.28731 -2.86069 34969 ft 435 kts 211°
2026-05-04 05:34 46.23789 -2.91126 34976 ft 436 kts 219°
2026-05-04 05:35 46.19185 -2.96837 34970 ft 437 kts 220°
2026-05-04 05:35 46.14571 -3.02548 34961 ft 437 kts 219°
2026-05-04 05:36 46.09941 -3.08214 34965 ft 436 kts 219°
2026-05-04 05:36 46.05306 -3.13847 34966 ft 436 kts 219°
2026-05-04 05:37 46.00694 -3.19431 34978 ft 436 kts 219°
2026-05-04 05:37 45.96006 -3.25096 34972 ft 438 kts 219°
2026-05-04 05:38 45.89036 -3.33493 34971 ft 438 kts 219°
2026-05-04 05:38 45.84355 -3.39119 34966 ft 439 kts 219°
2026-05-04 05:39 45.77326 -3.47541 34966 ft 439 kts 219°
2026-05-04 05:40 45.70296 -3.55937 34970 ft 439 kts 219°
2026-05-04 05:40 45.65599 -3.61530 34972 ft 440 kts 219°
2026-05-04 05:41 45.60890 -3.67125 34969 ft 440 kts 219°
2026-05-04 05:41 45.56172 -3.72719 34971 ft 440 kts 219°
2026-05-04 05:42 45.51488 -3.78258 34971 ft 440 kts 219°
2026-05-04 05:42 45.46764 -3.83834 34979 ft 440 kts 219°
2026-05-04 05:43 45.42043 -3.89392 34988 ft 440 kts 219°
2026-05-04 05:45 45.23044 -4.11638 34976 ft 443 kts 219°
2026-05-04 05:47 45.03948 -4.33798 34977 ft 443 kts 219°
2026-05-04 05:47 44.99186 -4.39293 34980 ft 442 kts 219°
2026-05-04 05:48 44.94446 -4.44751 34981 ft 442 kts 219°
2026-05-04 05:48 44.89682 -4.50226 34972 ft 442 kts 219°
2026-05-04 05:49 44.84915 -4.55690 34981 ft 441 kts 219°
2026-05-04 05:49 44.80151 -4.61140 34981 ft 442 kts 219°
2026-05-04 05:51 44.60994 -4.82936 34986 ft 443 kts 219°
2026-05-04 05:52 44.56222 -4.88338 34988 ft 443 kts 219°
2026-05-04 05:52 44.51412 -4.93770 34991 ft 444 kts 219°
2026-05-04 05:54 44.31320 -5.14048 34995 ft 446 kts 216°
2026-05-04 05:55 44.26273 -5.19086 34998 ft 446 kts 216°
2026-05-04 05:55 44.21261 -5.24083 34998 ft 446 kts 216°
2026-05-04 05:56 44.17037 -5.28286 35002 ft 445 kts 216°
2026-05-04 05:56 44.11175 -5.34107 35011 ft 445 kts 216°
2026-05-04 05:57 44.06119 -5.39114 35004 ft 447 kts 216°
2026-05-04 05:57 44.01900 -5.43285 35003 ft 447 kts 216°
2026-05-04 05:58 43.96824 -5.48292 35009 ft 448 kts 216°
2026-05-04 05:58 43.91742 -5.53294 35008 ft 448 kts 216°
2026-05-04 05:59 43.86656 -5.58290 34998 ft 448 kts 216°
2026-05-04 05:59 43.81571 -5.63275 35009 ft 447 kts 216°
2026-05-04 06:00 43.76492 -5.68244 35018 ft 447 kts 216°
2026-05-04 06:00 43.71414 -5.73200 35021 ft 447 kts 216°
2026-05-04 06:01 43.66325 -5.78156 35017 ft 447 kts 216°
2026-05-04 06:03 43.45958 -5.97889 35018 ft 447 kts 216°
2026-05-04 06:05 43.23000 -6.19936 35027 ft 448 kts 216°
2026-05-04 06:06 43.17884 -6.24821 35033 ft 448 kts 216°
2026-05-04 06:06 43.12763 -6.29700 35027 ft 448 kts 216°
2026-05-04 06:07 43.07668 -6.34545 35034 ft 449 kts 216°
2026-05-04 06:07 43.02543 -6.39407 35038 ft 448 kts 216°
2026-05-04 06:08 42.97420 -6.44258 35031 ft 448 kts 216°
2026-05-04 06:08 42.92291 -6.49105 35029 ft 449 kts 216°
2026-05-04 06:09 42.87147 -6.53956 35031 ft 450 kts 216°
2026-05-04 06:11 42.66721 -6.73116 34510 ft 428 kts 216°
2026-05-04 06:11 42.64280 -6.75395 34082 ft 424 kts 216°
2026-05-04 06:13 42.47778 -6.90752 31051 ft 399 kts 217°
2026-05-04 06:14 42.34363 -7.03165 28529 ft 379 kts 217°
2026-05-04 06:14 42.32194 -7.05166 28105 ft 375 kts 217°
2026-05-04 06:15 42.30050 -7.07141 27733 ft 370 kts 217°
2026-05-04 06:15 42.28072 -7.09331 27298 ft 365 kts 227°
2026-05-04 06:15 42.26409 -7.11904 26802 ft 363 kts 236°
2026-05-04 06:15 42.25051 -7.14763 26420 ft 359 kts 239°
2026-05-04 06:16 42.23744 -7.17628 26006 ft 357 kts 239°
2026-05-04 06:16 42.22449 -7.20476 25610 ft 355 kts 239°
2026-05-04 06:16 42.21160 -7.23304 25221 ft 352 kts 240°
2026-05-04 06:16 42.19874 -7.26113 24844 ft 351 kts 240°
2026-05-04 06:17 42.18593 -7.28900 24463 ft 349 kts 240°
2026-05-04 06:17 42.17316 -7.31670 24084 ft 347 kts 240°
2026-05-04 06:17 42.16043 -7.34425 23729 ft 345 kts 240°
2026-05-04 06:17 42.14775 -7.37164 23307 ft 343 kts 239°
2026-05-04 06:18 42.13515 -7.39880 22893 ft 340 kts 239°
2026-05-04 06:18 42.12282 -7.42535 22541 ft 337 kts 239°
2026-05-04 06:18 42.11027 -7.45237 22163 ft 334 kts 239°
2026-05-04 06:20 42.02598 -7.63313 19657 ft 321 kts 240°
2026-05-04 06:20 42.01406 -7.65861 19314 ft 322 kts 240°
2026-05-04 06:21 41.96521 -7.76284 17822 ft 332 kts 240°
2026-05-04 06:21 41.95292 -7.78898 17432 ft 330 kts 239°
2026-05-04 06:22 41.94073 -7.81488 17077 ft 326 kts 240°
2026-05-04 06:22 41.92865 -7.84052 16698 ft 324 kts 240°
2026-05-04 06:25 41.78054 -8.15979 12108 ft 302 kts 242°
2026-05-04 06:25 41.77003 -8.18401 11773 ft 300 kts 242°
2026-05-04 06:26 41.75949 -8.20815 11432 ft 299 kts 242°
2026-05-04 06:26 41.74897 -8.23219 11106 ft 298 kts 242°
2026-05-04 06:26 41.73865 -8.25621 10761 ft 297 kts 243°
2026-05-04 06:26 41.72851 -8.28029 10460 ft 295 kts 243°
2026-05-04 06:27 41.69038 -8.37090 9817 ft 270 kts 243°
2026-05-04 06:28 41.68119 -8.39268 9536 ft 268 kts 243°
2026-05-04 06:28 41.67207 -8.41427 9267 ft 265 kts 243°
2026-05-04 06:28 41.66302 -8.43567 8988 ft 263 kts 243°
2026-05-04 06:28 41.65402 -8.45695 8714 ft 262 kts 243°
2026-05-04 06:29 41.64511 -8.47799 8455 ft 260 kts 243°
2026-05-04 06:29 41.63623 -8.49895 8181 ft 258 kts 243°
2026-05-04 06:29 41.62739 -8.51980 7918 ft 257 kts 243°
2026-05-04 06:29 41.61860 -8.54050 7649 ft 256 kts 243°
2026-05-04 06:30 41.60982 -8.56116 7390 ft 254 kts 243°
2026-05-04 06:30 41.60108 -8.58168 7123 ft 253 kts 243°
2026-05-04 06:30 41.59204 -8.60193 6846 ft 256 kts 240°
2026-05-04 06:30 41.58220 -8.62217 6563 ft 262 kts 239°
2026-05-04 06:31 41.57216 -8.64256 6204 ft 265 kts 239°
2026-05-04 06:31 41.56184 -8.66365 5566 ft 277 kts 239°
2026-05-04 06:31 41.55123 -8.68542 4994 ft 281 kts 239°
2026-05-04 06:31 41.54060 -8.70723 4418 ft 279 kts 239°
2026-05-04 06:32 41.53007 -8.72817 3964 ft 271 kts 233°
2026-05-04 06:33 41.42553 -8.72790 3157 ft 209 kts 169°
2026-05-04 06:34 41.41138 -8.72422 2912 ft 204 kts 169°
2026-05-04 06:34 41.39770 -8.72062 2668 ft 198 kts 169°
2026-05-04 06:34 41.38441 -8.71712 2437 ft 191 kts 168°
2026-05-04 06:34 41.37176 -8.71379 2215 ft 185 kts 169°
2026-05-04 06:35 41.35938 -8.71053 1986 ft 177 kts 169°
2026-05-04 06:36 41.28570 -8.69114 647 ft 150 kts 169°
2026-05-04 06:37 41.27542 -8.68842 460 ft 152 kts 169°
2026-05-04 06:37 41.26526 -8.68574 289 ft 146 kts 168°
2026-05-04 06:37 41.25552 -8.68322 212 ft 137 kts 169°
2026-05-04 06:37 41.24758 -8.68111 237 ft 99 kts 168°
2026-05-04 06:38 41.24137 -8.67950 245 ft 83 kts 169°
2026-05-04 06:38 41.23897 -8.67818 253 ft 13 kts 97°